Flag for Spain Weather past 2 weeks in Madrid, Spain

Now
61 °F

Clear.


Feels Like: 61 °F
Forecast: 42 / 77 °F
Wind: 6 mph from Northwest

Location: Madrid / Cuatro Vientos

Current Time: Mar 31, 2015 at 1:21:42 AM

Latest Report: Mar 30, 2015 at 10:00 PM


Visibility: 10 mi

Pressure: 30.36 "Hg

Humidity: 45%

Dew point: 39 °F

Location of MadridLocation

Historic Weather in Madrid — Graph

°F

Madrid temperature yesterday

Maximum temperature yesterday: 79 °F (at 4:00 PM)
Minimum temperature yesterday: 54 °F (at 7:00 AM)
Average temperature yesterday: 69 °F

Past Weeks' High & Low Weather Summary

 TemperatureHumidityPressure
High79 °F (Mar 30, 4:00 PM)100% (Mar 18, 10:30 AM)30.39 "Hg (Mar 18, 10:30 AM)
Low32 °F (Mar 16, 7:30 AM)17% (Mar 30, 4:00 PM)29.59 "Hg (Mar 23, 5:30 PM)
Average53 °F62%30.01 "Hg
* Reported Mar 16 7:00 AM — Mar 30 10:00 PM, Madrid, Weather by CustomWeather, © 2015

Note: Actual official high and low records may vary slightly from our data, if they occured in-between our weather recording intervals... More about our weather records

Advertising

Madrid weather history for previous 24 hours

 ConditionsComfort  
Time TempWeatherWind HumidityBarometerVisibility
10:00 PM
Mon, Mar 30
61 °FClear.6 mph45%30.36 "Hg10 mi
9:30 PM64 °FSunny.8 mph40%30.33 "Hg10 mi
9:00 PM68 °FPassing clouds.7 mph35%30.33 "HgN/A
8:30 PM72 °FPassing clouds.8 mph31%30.33 "HgN/A
8:00 PM73 °FPassing clouds.6 mph29%30.33 "HgN/A
7:30 PM75 °FPassing clouds.13 mph29%30.33 "HgN/A
7:00 PM75 °FPassing clouds.13 mph29%30.33 "HgN/A
6:30 PM75 °FSunny.14 mph27%30.33 "Hg10 mi
6:00 PM77 °FPassing clouds.14 mph24%30.33 "HgN/A
5:30 PM77 °FPassing clouds.10 mph22%30.33 "HgN/A
5:00 PM79 °FSunny.9 mph23%30.33 "Hg10 mi
4:30 PM79 °FPassing clouds.6 mph21%30.33 "HgN/A
4:00 PM79 °FPassing clouds.6 mph17%30.33 "HgN/A
3:30 PM77 °FPassing clouds.9 mph24%30.33 "HgN/A
3:00 PM77 °FPassing clouds.9 mph21%30.33 "HgN/A
2:30 PM75 °FSunny.14 mph24%30.36 "Hg10 mi
2:00 PM75 °FPassing clouds.10 mph27%30.36 "HgN/A
1:30 PM73 °FPassing clouds.10 mph25%30.36 "HgN/A
1:00 PM73 °FPassing clouds.5 mph25%30.36 "HgN/A
12:30 PM72 °FPassing clouds.7 mph23%30.39 "HgN/A
12:00 PM72 °FPassing clouds.3 mph29%30.39 "HgN/A
11:30 AM70 °FSunny.2 mph31%30.36 "Hg10 mi
11:00 AM68 °FPassing clouds.5 mph35%30.36 "HgN/A
10:30 AM64 °FPassing clouds.8 mph37%30.36 "HgN/A
10:00 AM63 °FPassing clouds.5 mph45%30.36 "HgN/A
9:30 AM61 °FPassing clouds.5 mph48%30.36 "HgN/A
9:00 AM57 °FPassing clouds.3 mph51%30.33 "HgN/A
8:30 AM57 °FPassing clouds.5 mph51%30.33 "HgN/A
8:00 AM57 °FPassing clouds.12 mph51%30.33 "HgN/A
7:30 AM54 °FClear.7 mph58%30.30 "Hg10 mi
7:00 AM54 °FClear.12 mph58%30.30 "Hg10 mi
Weather by CustomWeather, © 2015

See weather overviewHow to use our weather pages